www.pogodaiklimat.ru

Погода и климат >> Архив погоды >> Египет >> Нехель


ПОГОДА в Нехеле

  • Прогноз погоды в Нехеле
  • Монитор погоды в Нехеле

АРХИВ ПОГОДЫ в Нехеле

Время (UTC), дата Ветер
(напр.,м/с)
 
Видим.   Явления Облачность Т
(С)
Тd
(С)
f
(%)
Тe
(С)
Тes
(С)
Комфортность P
(гПа)
Po
(гПа)
Тmin
(С)
Tmax
(С)
R
(мм)
R24
(мм)
S
(см)
03 10.09 Ю 2 10 км ясно +19.6 +18.1 91 +23 +23 комфорт 1011.5 965.0
06 10.09 С 1 10 км 8/8 600 м
[Sc]
+23.0 +19.1 79 +29 +31 очень
душно
1011.8 965.8 +18.4
09 10.09 С 2 10 км ясно +28.3 +17.3 51 +32 +51 опасность
солнечного
удара
1009.8 964.7
12 10.09 С 4 10 км ясно +31.6 +12.7 32 +32 +42 жарко 1008.0 963.5
15 10.09 С 4 10 км ясно +31.7 +11.8 30 +32 +33 жарко 1007.2 962.7
18 10.09 С 7 10 км ясно +25.3 +18.8 67 +30 +30 душно 1010.5 964.9 +32.7
21 10.09 С 2 10 км ясно +22.5 +19.1 81 +28 +28 душно 1012.0 965.9
00 11.09 В 1 10 км ясно +20.9 +19.7 93 +27 +27 душно 1012.4 966.1
03 11.09 ЮЗ 1 6000 м дымка 5/5 600 м
[Sc]
+18.9 +17.3 90 +21 +21 комфорт 1013.5 966.8
09 11.09 СЗ 2 10 км ясно +27.9 +16.2 49 +31 +50 душно 1012.8 967.5
12 11.09 С 4 10 км ясно +31.9 +8.2 23 +31 +40 жарко 1011.1 966.5
15 11.09 С 5 10 км ясно +31.4 +11.8 30 +32 +32 жарко 1010.8 966.1
18 11.09 С 8 10 км ясно +25.0 +16.7 60 +29 +29 душно 1013.9 968.1 +32.8
21 11.09 С 4 10 км ясно +22.0 +18.3 80 +27 +27 душно 1015.8 969.5
00 12.09 Ю 2 10 км ясно +19.7 +17.5 87 +23 +23 комфорт 1015.2 968.6
03 12.09 Ю 2 10 км ясно +17.0 +15.1 89 +18 +18 1015.3 968.2
06 12.09 10 км н/о +22.4 +18.7 80 +28 +29 душно 1015.3 969.1 +15.7
12 12.09 СЗ 6 10 км ясно +31.0 +14.2 36 +33 +37 душно 1012.0 967.2
15 12.09 СЗ 5 10 км ясно +31.3 +12.1 31 +32 +32 жарко 1010.5 965.8
18 12.09 С 5 10 км ясно +24.5 +16.6 61 +28 +28 душно 1014.0 1014.0 +32.4
21 12.09 С 3 10 км ясно +21.6 +17.5 77 +26 +26 душно 1014.4 968.1
00 13.09 ЮЗ 2 10 км ясно +18.3 +16.0 86 +20 +20 1013.7 966.9
03 13.09 ЮЗ 1 10 км 5/5 600 м
[Sc]
+16.8 +14.8 88 +18 +18 1013.7 966.7
06 13.09 Ю 1 10 км 4/4 600 м
[Sc]
+22.4 +18.0 76 +27 +31 душно 1013.0 966.9 +16.6
09 13.09 С 3 10 км ясно +26.9 +16.8 54 +31 +44 душно 1010.7 965.4
12 13.09 С 4 10 км ясно +31.4 +13.8 34 +33 +42 жарко 1007.9 963.3
15 13.09 С 5 10 км ясно +31.3 +11.9 30 +32 +32 жарко 1007.3 962.7
18 13.09 С 9 10 км ясно +24.4 +19.4 74 +30 +30 очень
душно
1010.5 964.8 +32.6
21 13.09 С 2 10 км ясно +22.3 +19.4 84 +28 +28 душно 1011.4 965.3
00 14.09 СВ 1 10 км ясно +22.4 +19.6 84 +28 +28 душно 1010.1 964.1
03 14.09 З 1 10 км ясно +22.3 +19.9 86 +28 +28 душно 1010.0 964.0
06 14.09 СЗ 5 10 км 5/5 600 м
[Sc]
+23.2 +18.1 73 +29 +30 душно 1010.6 964.7 +21.4
09 14.09 З 3 10 км ясно +27.6 +14.7 45 +30 +44 жарко 1009.1 963.9
12 15.09 З 4 10 км 5/5 600 м
[Sc]
+31.4 +12.6 32 +32 +36 жарко 1008.5 963.9
15 15.09 З 4 10 км 5/5 600 м
[Sc]
+29.9 +12.4 34 +31 +31 жарко 1009.1 964.3
18 15.09 С 6 10 км ясно +24.8 +17.2 63 +29 +29 душно 1011.9 966.2 +31.7
21 15.09 Ю 2 10 км ясно +21.6 +17.1 76 +26 +26 душно 1012.9 966.7
00 16.09 штиль 0 10 км ясно +20.0 +16.4 80 +22 +22 комфорт 1013.3 966.8
03 16.09 Ю 1 10 км ясно +17.0 +13.7 81 +18 +18 1013.8 966.8
06 16.09 Ю 2 10 км ясно +21.4 +15.5 69 +25 +30 комфорт 1014.1 967.8 +15.7
09 16.09 СЗ 1 10 км ясно +28.8 +13.0 38 +30 +49 жарко 1012.4 967.3
12 16.09 СЗ 3 10 км ясно +30.3 +10.6 30 +30 +40 жарко 1011.2 966.3
15 16.09 С 3 10 км ясно +30.1 +9.5 28 +30 +30 жарко 1010.3 965.4
18 16.09 С 8 10 км ясно +25.5 +15.4 54 +29 +29 душно 1012.4 966.8 +31.6
21 16.09 С 2 10 км ясно +22.0 +17.1 74 +26 +26 душно 1014.0 967.8
00 17.09 С 2 10 км ясно +20.2 +19.9 98 +25 +25 комфорт 1013.8 967.3

 

Местоположение метеостанции Нехель (Египет): широта 29.92 долгота 33.73 высота над уровнем моря 403 м.

В архиве по умолчанию представлена погода в Нехеле за последнюю неделю. Архивные данные за месяц целиком и за предыдущие месяцы, начиная с января 2011 года, Вы можете получить, выбрав интересующий диапазон дат из раскрывающегося списка и нажав кнопку "Ввод!".


*Определитесь, кто Вы:
робот инопланетянин человек

Внимание! Время в таблицах - всемирное. Для получения местного времени необходимо прибавить поправку, которая равна 2 ч.

Смотрите также архив погоды в соседних городах и на ближайших метеорологических станциях:

Погода в Рас-Седре (Египет) (105 км)
Погода в Эйлате (Израиль) (125 км)
Погода в Неот-Смадаре (Израиль) (125 км)
Погода в Абу Редис (Египет) (125 км)
Погода в Эль-Арише (Египет) (129 км)
Погода в Акаба (Иордания) (129 км)
Погода в Исмаилии (Египет) (161 км)
Погода в Беэр-Шева (Израиль) (180 км)
Погода в Эль-Торе (Египет) (188 км)
Погода в Маане (Иордания) (199 км)

Пояснения к столбцам:

Ветер - указаны скорость ветра в м/с - средняя за 10 мин, порывы в срок и между сроками (в фигурных скобках) и направление, откуда дует ветер: С - северный, СВ - северо-восточный, В - восточный, ЮВ - юго-восточный, Ю - южный, ЮЗ - юго-западный, З - западный, СЗ - северо-западный.
Видимость - горизонтальная дальность видимости в метрах или километрах. При видимости от 1 до 10 км при отсутствии осадков обычно наблюдается дымка, при ухудшении видимости до 1 км и менее - туман. В сухую погоду видимость может ухудшаться дымом, пылью или мглою.
Явления - указаны атмосферные явления, наблюдавшиеся в срок или в последний час перед сроком; фигурными скобками обозначены явления, наблюдавшиеся между сроками (за 1-3 часа до срока); квадратными скобками обозначены град или гололедные отложения с указанием их диаметра в мм.
Облачность - указаны через наклонную черту общая и нижняя облачность в баллах и высота нижней границы облаков в метрах; квадратными скобками обозначены формы облаков: Ci - перистые, Cs - перисто-слоистые, Cc - перисто-кучевые, Ac - высококучевые, As - высокослоистые, Sc - слоисто-кучевые, Ns - слоисто-дождевые, Cu - кучевые, Cb - кучево-дождевые. Подробнее классификацию облаков см. в Атласе облаков (PDF).
T - Температура воздуха - температура, измеренная на высоте 2 м над землей.
Td - Температура точки росы - температура, при понижении до которой содержащийся в воздухе водяной пар достигнет насыщения.
f - Относительная влажность воздуха - влажноcть воздуха, измеренная на высоте 2 м над землей.
Te - Эффективная температура - температура, которую ощущает одетый по сезону человек в тени. Характеристика душности погоды. При расчете учитывается влияние влажности воздуха и скорости ветра на теплоощущения человека.
Tes - Эффективная температура на солнце - температура, которую ощущает человек, с поправкой на солнечный нагрев. Характеристика знойности погоды. Зависит от высоты солнца над горизонтом, облачности и скорости ветра. Ночью, в пасмурную погоду, а также при ветре 12 м/с и более поправка равна нулю.
P - Атмосферное давление - приведенное к уровню моря атмосферное давление.
Po - Атмосферное давление - измеренное на уровне метеостанции атмосферное давление.
Tmin - Минимальная температура - минимум температуры воздуха на высоте 2 м над землей.
Tmax - Максимальная температура - максимум температуры воздуха на высоте 2 м над землей.
R - Количество осадков - Количество выпавших осадков за период времени, мм. При наведении курсора мыши на число - период времени, за который выпало указанное количество осадков.
R24 - Количество осадков - Количество выпавших осадков за 24 часа, мм.
S - Снежный покров - Высота снежного покрова, см. При наведении курсора мыши на число - состояние снежного покрова и степень покрытия местности в баллах.